Location: Las Vegas
(36.1750°N, 115.1360°W)
Time: 16:41:12
(UTC-07:00)

Amateur Radio Satellites - All Passes

Search period start: 22 May 2015 16:11
Search period end: 23 May 2015 16:11
Location: Las Vegas, 36.1750°N, 115.1360°W

Satellite Date Start Highest point End Downlink Frequencies (MHz)
Time Altitude Azimuth
O/OREOS (USA 219) 22 May 16:13:07 16:17:30 52° 107° (ESE) 16:21:54 437.305
SRMSAT 22 May 16:27:22 16:30:46 16° 182° (S) 16:34:10 437.500
MOZHAYETS 4 22 May 16:39:24 16:43:21 29° 96° (E) 16:47:21
CUTE-I 22 May 16:53:57 16:56:39 15° 64° (ENE) 16:59:36 437.470
JAS-2 22 May 17:01:29 17:07:12 25° 266° (W) 17:12:16 435.910
STARS 22 May 17:03:47 17:06:47 17° 292° (WNW) 17:09:34 437.465
Cubesat XI-IV 22 May 17:11:38 17:15:34 22° 67° (ENE) 17:19:39 437.490
AO-7 22 May 17:14:51 17:21:49 28° 265° (W) 17:28:34 29.400- 29.500
RS-15 22 May 17:29:43 17:39:56 36° 42° (NE) 17:50:45 29.354- 29.394
Cosmos 2499 22 May 17:47:03 17:51:31 15° 295° (WNW) 17:55:16 435.465 / 435.565
O/OREOS (USA 219) 22 May 17:54:48 17:57:18 14° 304° (NW) 17:59:37 437.305
CUBESAT XI-V 22 May 18:04:53 18:08:06 19° 92° (E) 18:11:30 437.345
BEESAT 2 22 May 18:11:36 18:14:04 16° 111° (ESE) 18:16:44 435.950
MOZHAYETS 4 22 May 18:16:50 18:20:27 23° 290° (WNW) 18:23:58
SRMSAT 22 May 18:17:27 18:19:11 11° 192° (SSW) 18:20:48 437.500
PRISM 22 May 18:23:41 18:24:35 11° 90° (E) 18:25:47 437.425
CUTE-I 22 May 18:30:59 18:36:14 65° 258° (WSW) 18:41:32 437.470
Cosmos 2491 22 May 18:40:16 18:46:45 25° 84° (E) 18:53:37 435.465 / 435.565
YUBILEINY 22 May 18:40:17 18:48:32 47° 76° (ENE) 18:56:51 435.215
Cubesat XI-IV 22 May 18:50:25 18:55:26 42° 262° (W) 19:00:26 437.490
STRAND 1 22 May 19:02:44 19:07:15 32° 96° (E) 19:11:51 437.568
BEESAT 3 22 May 19:05:33 19:09:37 89° 120° (ESE) 19:13:44 437.485
AIST 2 22 May 19:07:46 19:10:46 19° 111° (ESE) 19:13:54 435.215
BRITE-PL 22 May 19:08:17 19:12:05 24° 68° (ENE) 19:16:15 437.365/2234.400
AUBIESAT-1 22 May 19:10:52 19:11:43 11° 97° (E) 19:12:47 437.475
HO-68 22 May 19:11:07 19:16:12 22° 62° (ENE) 19:21:32 435.675
DOVE 4 22 May 19:23:26 19:25:55 14° 65° (ENE) 19:28:42 437.250
GOMX 1 22 May 19:35:06 19:39:17 28° 69° (ENE) 19:43:45 467.674
CUBESAT XI-V 22 May 19:41:22 19:45:42 37° 288° (WNW) 19:50:00 437.345
RS-15 22 May 19:41:47 19:53:26 72° 245° (WSW) 20:05:28 29.354- 29.394
BEESAT 2 22 May 19:48:03 19:51:54 38° 305° (NW) 19:55:46 435.950
AAUSAT CUBESAT 2 22 May 19:53:39 19:55:21 13° 68° (ENE) 19:57:15 437.432
PRISM 22 May 19:56:22 20:00:24 50° 286° (WNW) 20:04:25 437.425
CANX-2 22 May 20:14:48 20:18:53 46° 75° (ENE) 20:22:59 2200.000
CUTE 1.7 + AOD 2 22 May 20:19:06 20:23:12 46° 74° (ENE) 20:27:18 437.475
UWE-3 22 May 20:23:47 20:24:17 10° 65° (ENE) 20:25:07 435.000/436.395/437.385
M-CUBED/EXP-1 PRIME 22 May 20:30:51 20:33:58 36° 291° (WNW) 20:37:01 437.505
AIST 1 22 May 20:32:50 20:36:22 27° 91° (E) 20:39:59
Cosmos 2491 22 May 20:34:21 20:43:02 63° 281° (W) 20:51:46 435.465 / 435.565
YUBILEINY 22 May 20:37:34 20:45:08 34° 273° (W) 20:52:29 435.215
STRAND 1 22 May 20:42:03 20:46:22 27° 291° (WNW) 20:50:35 437.568
AUBIESAT-1 22 May 20:43:47 20:46:44 29° 292° (WNW) 20:49:36 437.475
FUNcube-1 22 May 20:45:01 20:47:12 14° 67° (ENE) 20:49:36 145.935
AIST 2 22 May 20:45:13 20:49:08 34° 306° (NW) 20:53:04 435.215
BRITE-PL 22 May 20:45:56 20:50:23 35° 265° (W) 20:55:09 437.365/2234.400
SEEDS 22 May 20:49:06 20:53:21 88° 79° (E) 20:57:36 437.485
DELFI C3 22 May 20:51:43 20:54:27 18° 70° (ENE) 20:57:20 145.870
HO-68 22 May 20:56:15 21:03:23 67° 257° (WSW) 21:10:33 435.675
DOVE 4 22 May 20:58:11 21:03:06 64° 261° (W) 21:08:17 437.250
CUBEBUG 2 22 May 20:58:44 21:02:54 32° 72° (ENE) 21:07:10 437.445
Cosmos 2504 22 May 21:01:52 21:08:15 34° 74° (ENE) 21:14:41 435.465 / 435.565
COMPASS 1 22 May 21:10:08 21:14:19 65° 260° (W) 21:18:29 437.405
CINEMA 3 22 May 21:11:08 21:16:02 87° 81° (E) 21:21:06 145.822/145.860
GOMX 1 22 May 21:12:57 21:17:18 30° 266° (W) 21:21:51 467.674
ZACube-1 22 May 21:21:19 21:25:27 35° 72° (ENE) 21:29:39 437.345
AAUSAT CUBESAT 2 22 May 21:26:33 21:30:36 47° 261° (W) 21:34:38 437.432
VELOX 1 22 May 21:33:58 21:34:58 11° 65° (ENE) 21:36:15 145.980
UKube-1 22 May 21:34:10 21:37:24 22° 69° (ENE) 21:40:46 .
DX 1 22 May 21:35:37 21:39:05 24° 70° (ENE) 21:42:39 434.975-435.025
Oscar 11 22 May 21:44:40 21:49:00 69° 258° (WSW) 21:53:20 145.826/435.025
CANX-2 22 May 21:53:06 21:55:07 13° 270° (W) 21:56:53 2200.000
HUMSAT D 22 May 21:54:19 21:58:14 35° 73° (ENE) 22:02:12 437.325/437.525
UWE-3 22 May 21:55:35 22:00:15 76° 259° (WSW) 22:04:58 435.000/436.395/437.385
CUTE 1.7 + AOD 2 22 May 21:57:27 21:59:25 12° 270° (W) 22:01:09 437.475
RS-15 22 May 21:58:58 22:04:27 13° 260° (W) 22:08:42 29.354- 29.394
AISAT 22 May 22:01:10 22:04:38 23° 70° (ENE) 22:08:14 437.250
AIST 1 22 May 22:10:51 22:14:03 20° 286° (WNW) 22:17:08
FUNcube-1 22 May 22:18:37 22:23:07 54° 261° (W) 22:27:37 145.935
50 SAT 22 May 22:20:56 22:24:40 38° 74° (ENE) 22:28:26 437.505
TIGRISAT 22 May 22:23:27 22:26:23 18° 92° (E) 22:29:27 435.000
DELFI C3 22 May 22:25:52 22:29:25 28° 264° (W) 22:32:54 145.870
CUBEBUG 2 22 May 22:35:49 22:39:38 23° 267° (W) 22:43:21 437.445
NANOSAT C BR1 22 May 22:39:07 22:40:24 11° 90° (E) 22:41:57 145.865
UNISAT 6 22 May 22:41:05 22:44:57 30° 96° (E) 22:48:46 437.425
QB50P2 22 May 22:42:56 22:44:58 14° 91° (E) 22:47:14 145.880/145.840
ESTCUBE 1 22 May 22:51:14 22:55:30 46° 74° (ENE) 22:59:49 437.505/2401.250
Cosmos 2504 22 May 22:55:09 23:01:39 36° 271° (W) 23:08:00 435.465 / 435.565
POPSAT HIP 1 22 May 22:55:38 22:58:37 19° 93° (E) 23:01:44 437.405
ZACube-1 22 May 22:58:29 23:01:54 20° 267° (W) 23:05:12 437.345
DUCHIFAT 1 22 May 23:01:17 23:04:30 21° 94° (E) 23:07:50 145.980
CUSAT 1 22 May 23:04:15 23:07:54 15° 58° (ENE) 23:11:37 437.405
VELOX 1 22 May 23:06:40 23:11:02 64° 259° (W) 23:15:27 145.980
UKube-1 22 May 23:09:39 23:13:25 28° 264° (W) 23:17:08 .
GONETS M04 22 May 23:10:21 23:14:44 15° 61° (ENE) 23:19:43
DX 1 22 May 23:11:37 23:15:15 25° 265° (W) 23:18:50 434.975-435.025
CUBEBUG 1 22 May 23:18:23 23:22:43 84° 78° (ENE) 23:27:06 437.445
TISAT 1 22 May 23:22:42 23:25:21 17° 69° (ENE) 23:28:10 437.305
ANTELSAT 22 May 23:23:51 23:28:18 83° 283° (WNW) 23:32:37 437.575/2403.000
HUMSAT D 22 May 23:31:10 23:34:07 17° 268° (W) 23:36:54 437.325/437.525
AISAT 22 May 23:37:18 23:41:08 27° 265° (W) 23:44:54 437.250
POLYITAN 1 22 May 23:38:36 23:42:53 64° 100° (E) 23:47:07 437.675
ISS 22 May 23:39:08 23:40:50 14° 129° (SE) 23:42:38 145.825
QB50P1 22 May 23:39:14 23:43:30 64° 101° (E) 23:47:44 145.935-145.965
DANDE 22 May 23:42:18 23:48:36 25° 64° (ENE) 23:54:16 436.750
BUGSAT 1 22 May 23:44:47 23:48:55 48° 99° (E) 23:53:03 437.445
50 SAT 22 May 23:57:33 23:59:36 13° 269° (W) 00:01:27 437.505
TIGRISAT 22 May 23:59:18 00:03:17 33° 288° (WNW) 00:07:09 435.000
NANOSAT C BR1 23 May 00:12:27 00:16:37 50° 286° (WNW) 00:20:43 145.865
SPROUT 23 May 00:15:09 00:19:28 84° 260° (W) 00:23:49 437.525
QB50P2 23 May 00:17:03 00:21:08 43° 286° (WNW) 00:25:10 145.880/145.840
UNISAT 6 23 May 00:18:14 00:21:34 21° 291° (WNW) 00:24:44 437.425
ESTCUBE 1 23 May 00:30:19 00:32:41 14° 269° (W) 00:34:50 437.505/2401.250
POPSAT HIP 1 23 May 00:30:45 00:34:35 31° 288° (WNW) 00:38:19 437.405
DUCHIFAT 1 23 May 00:36:40 00:40:20 27° 289° (WNW) 00:43:54 145.980
CUSAT 1 23 May 00:44:34 00:52:11 89° 78° (ENE) 00:58:06 437.405
TISAT 1 23 May 00:56:58 01:00:52 35° 263° (W) 01:04:47 437.305
PCSat 23 May 00:57:31 01:02:08 30° 109° (ESE) 01:06:52 145.827
GONETS M04 23 May 01:04:20 01:13:12 85° 83° (E) 01:21:57
ISS 23 May 01:13:51 01:16:59 46° 322° (NW) 01:20:08 145.825
ITUPSAT 1 23 May 01:13:58 01:18:30 46° 73° (ENE) 01:23:04 437.325
POLYITAN 1 23 May 01:17:52 01:18:18 10° 294° (WNW) 01:18:28 437.675
QB50P1 23 May 01:18:29 01:18:53 10° 294° (WNW) 01:19:00 145.935-145.965
BUGSAT 1 23 May 01:21:53 01:24:01 13° 293° (WNW) 01:25:55 437.445
BEESAT 23 May 01:24:28 01:29:09 62° 75° (ENE) 01:33:51 436.000
DANDE 23 May 01:24:40 01:32:37 60° 267° (W) 01:38:58 436.750
SWISSCUBE 23 May 01:32:09 01:36:54 82° 76° (ENE) 01:41:40 437.505
Cosmos 2499 23 May 01:44:20 01:49:48 24° 70° (ENE) 01:55:29 435.465 / 435.565
Oscar 19 23 May 01:47:36 01:52:33 46° 99° (E) 01:57:29 437.125/150
ITAMSAT 1 23 May 01:53:27 01:55:57 14° 90° (E) 01:58:45 435.822/435.867
Gurwin Techsat 1B 23 May 02:04:05 02:07:26 17° 91° (E) 02:11:01 435.225
STARS 23 May 02:21:08 02:24:42 25° 70° (ENE) 02:28:24 437.465
O/OREOS (USA 219) 23 May 02:25:38 02:30:04 63° 68° (ENE) 02:34:29 437.305
CUSAT 1 23 May 02:30:22 02:33:30 13° 281° (W) 02:35:57 437.405
PCSat 23 May 02:40:36 02:45:30 33° 305° (NW) 02:50:21 145.827
KKS-1 23 May 02:41:14 02:45:41 71° 76° (ENE) 02:50:10 437.445
VERMONT LUNAR 23 May 02:45:32 02:48:15 25° 149° (SSE) 02:50:59 437.305
ITUPSAT 1 23 May 02:53:44 02:56:41 16° 268° (W) 02:59:25 437.325
GONETS M04 23 May 03:03:48 03:09:03 17° 279° (W) 03:13:42
BEESAT 23 May 03:05:45 03:07:29 11° 271° (W) 03:08:53 436.000
SO-50 23 May 03:12:15 03:15:45 22° 111° (ESE) 03:19:28 436.795
AO-7 23 May 03:26:29 03:32:11 21° 92° (E) 03:38:19 29.400- 29.500
BEESAT 3 23 May 03:27:13 03:30:31 24° 51° (NE) 03:33:50 437.485
Oscar 19 23 May 03:27:57 03:31:35 19° 293° (WNW) 03:35:02 437.125/150
HORYU 2 23 May 03:28:06 03:31:00 18° 93° (E) 03:34:04 437.375
ITAMSAT 1 23 May 03:30:47 03:35:56 61° 286° (WNW) 03:41:04 435.822/435.867
Cosmos 2499 23 May 03:36:33 03:43:19 49° 268° (W) 03:50:05 435.465 / 435.565
MOZHAYETS 4 23 May 03:39:19 03:42:42 21° 70° (ENE) 03:46:12
Gurwin Techsat 1B 23 May 03:42:37 03:47:45 50° 287° (WNW) 03:52:52 435.225
STARS 23 May 03:57:21 04:01:05 26° 265° (W) 04:04:46 437.465
PHONESAT 2.4 23 May 03:58:07 04:01:07 28° 149° (SSE) 04:04:08 2401.200-2431.200
BEESAT 2 23 May 04:09:26 04:13:27 54° 57° (ENE) 04:17:24 435.950
JAS-2 23 May 04:12:24 04:17:23 48° 99° (E) 04:22:30 435.910
VERMONT LUNAR 23 May 04:22:08 04:25:18 64° 342° (NNW) 04:28:30 437.305
SO-50 23 May 04:51:44 04:56:05 37° 307° (NW) 05:00:33 436.795
HORYU 2 23 May 05:03:44 05:07:48 35° 288° (WNW) 05:11:48 437.375
BEESAT 3 23 May 05:05:01 05:08:28 26° 247° (WSW) 05:11:48 437.485
CUBESAT XI-V 23 May 05:06:56 05:09:12 14° 67° (ENE) 05:11:41 437.345
AIST 2 23 May 05:09:01 05:13:13 68° 59° (ENE) 05:17:21 435.215
MOZHAYETS 4 23 May 05:15:37 05:19:45 32° 264° (W) 05:23:51
AO-7 23 May 05:17:27 05:25:49 74° 289° (WNW) 05:34:08 29.400- 29.500
PHONESAT 2.4 23 May 05:35:39 05:39:06 66° 343° (NNW) 05:42:33 2401.200-2431.200
M-CUBED/EXP-1 PRIME 23 May 05:43:36 05:45:30 13° 64° (ENE) 05:47:32 437.505
BEESAT 2 23 May 05:49:56 05:51:07 11° 251° (WSW) 05:52:02 435.950
AUBIESAT-1 23 May 05:55:26 05:57:50 15° 65° (ENE) 06:00:18 437.475
JAS-2 23 May 05:58:53 06:02:14 17° 294° (WNW) 06:05:23 435.910
VERMONT LUNAR 23 May 05:59:49 06:02:48 35° 360° (N) 06:05:48 437.305
ISS 23 May 06:08:48 06:09:39 11° 21° (NNE) 06:10:35 145.825
STRAND 1 23 May 06:16:06 06:20:39 35° 71° (ENE) 06:25:16 437.568
CUBESAT XI-V 23 May 06:41:47 06:46:15 51° 261° (W) 06:50:45 437.345
PRISM 23 May 06:43:32 06:47:37 80° 77° (ENE) 06:51:43 437.425
Cosmos 2491 23 May 06:47:59 06:56:41 60° 79° (ENE) 07:05:21 435.465 / 435.565
CUTE-I 23 May 06:50:42 06:56:02 63° 101° (E) 07:01:22 437.470
Cubesat XI-IV 23 May 07:09:57 07:15:20 84° 285° (WNW) 07:20:43 437.490
AO-7 23 May 07:12:57 07:17:24 15° 307° (NW) 07:21:23 29.400- 29.500
PHONESAT 2.4 23 May 07:14:14 07:17:30 38° 360° (N) 07:20:47 2401.200-2431.200
M-CUBED/EXP-1 PRIME 23 May 07:15:42 07:20:04 52° 255° (WSW) 07:24:08 437.505
BRITE-PL 23 May 07:18:16 07:19:08 10° 85° (E) 07:20:27 437.365/2234.400
AUBIESAT-1 23 May 07:28:10 07:32:23 43° 256° (WSW) 07:36:18 437.475
VERMONT LUNAR 23 May 07:37:08 07:40:18 61° 16° (NNE) 07:43:29 437.305
YUBILEINY 23 May 07:37:21 07:45:52 59° 92° (E) 07:54:26 435.215
GOMX 1 23 May 07:42:21 07:43:29 11° 86° (E) 07:45:01 467.674
ISS 23 May 07:43:26 07:46:40 58° 38° (NE) 07:49:54 145.825
RS-15 23 May 07:53:42 08:00:57 22° 104° (ESE) 08:08:55 29.354- 29.394
STRAND 1 23 May 07:55:51 07:59:56 24° 266° (W) 08:03:56 437.568
AIST 1 23 May 08:19:12 08:23:34 74° 82° (E) 08:27:57
HO-68 23 May 08:27:36 08:33:26 28° 94° (E) 08:39:26 435.675
CUTE-I 23 May 08:32:30 08:35:39 15° 295° (WNW) 08:38:33 437.470
SEEDS 23 May 08:37:15 08:39:58 17° 93° (E) 08:42:49 437.485
Cosmos 2491 23 May 08:45:59 08:53:02 26° 275° (W) 08:59:43 435.465 / 435.565
PHONESAT 2.4 23 May 08:52:28 08:55:55 66° 16° (NNE) 08:59:22 2401.200-2431.200
BRITE-PL 23 May 08:52:45 08:58:29 86° 285° (WNW) 09:03:59 437.365/2234.400
COMPASS 1 23 May 08:56:50 09:00:08 23° 95° (E) 09:03:30 437.405
DOVE 4 23 May 09:00:28 09:05:26 46° 97° (E) 09:10:09 437.250
CINEMA 3 23 May 09:09:53 09:13:49 26° 94° (E) 09:17:41 145.822/145.860
AAUSAT CUBESAT 2 23 May 09:12:20 09:15:59 30° 96° (E) 09:19:39 437.432
VERMONT LUNAR 23 May 09:14:36 09:17:23 27° 211° (SSW) 09:20:09 437.305
GOMX 1 23 May 09:16:55 09:22:23 78° 282° (WNW) 09:27:33 467.674
TIGRISAT 23 May 09:20:26 09:22:44 14° 67° (ENE) 09:25:15 435.000
ISS 23 May 09:21:44 09:22:46 11° 232° (SW) 09:23:38 145.825
Oscar 11 23 May 09:35:12 09:38:45 25° 95° (E) 09:42:21 145.826/435.025
YUBILEINY 23 May 09:36:02 09:43:18 27° 291° (WNW) 09:50:16 435.215
Cosmos 2504 23 May 09:36:13 09:43:30 34° 88° (E) 09:50:35 435.465 / 435.565
UNISAT 6 23 May 09:37:38 09:41:11 22° 70° (ENE) 09:44:50 437.425
CANX-2 23 May 09:38:23 09:42:33 59° 284° (WNW) 09:46:40 2200.000
CUTE 1.7 + AOD 2 23 May 09:42:36 09:46:45 58° 284° (WNW) 09:50:53 437.475
POPSAT HIP 1 23 May 09:47:58 09:49:00 11° 66° (ENE) 09:50:18 437.405
PCSat 23 May 09:48:34 09:51:46 16° 47° (NE) 09:55:11 145.827
UWE-3 23 May 09:49:08 09:52:48 26° 94° (E) 09:56:26 435.000/436.395/437.385
DUCHIFAT 1 23 May 09:52:45 09:54:23 12° 67° (ENE) 09:56:14 145.980
RS-15 23 May 10:01:18 10:12:12 82° 301° (WNW) 10:23:23 29.354- 29.394
DELFI C3 23 May 10:07:15 10:11:05 42° 98° (E) 10:14:54 145.870
FUNcube-1 23 May 10:10:11 10:14:08 34° 96° (E) 10:18:01 145.935
SEEDS 23 May 10:12:08 10:15:53 32° 287° (WNW) 10:19:33 437.485
HO-68 23 May 10:14:35 10:21:27 50° 291° (WNW) 10:28:14 435.675
ANTELSAT 23 May 10:19:35 10:24:14 63° 76° (ENE) 10:28:53 437.575/2403.000
CUBEBUG 2 23 May 10:28:51 10:33:23 83° 283° (WNW) 10:37:44 437.445
POLYITAN 1 23 May 10:29:05 10:32:56 34° 73° (ENE) 10:36:52 437.675
QB50P1 23 May 10:29:27 10:33:16 33° 72° (ENE) 10:37:10 145.935-145.965
PHONESAT 2.4 23 May 10:30:52 10:33:54 28° 211° (SSW) 10:36:54 2401.200-2431.200
COMPASS 1 23 May 10:32:24 10:35:45 23° 289° (WNW) 10:39:01 437.405
BUGSAT 1 23 May 10:32:47 10:36:02 23° 70° (ENE) 10:39:24 437.445
BRITE-PL 23 May 10:34:24 10:36:12 11° 297° (WNW) 10:37:36 437.365/2234.400
DOVE 4 23 May 10:39:10 10:42:48 19° 293° (WNW) 10:46:09 437.250
CINEMA 3 23 May 10:46:55 10:50:58 27° 290° (WNW) 10:54:48 145.822/145.860
AAUSAT CUBESAT 2 23 May 10:48:30 10:51:25 18° 290° (WNW) 10:54:11 437.432
ESTCUBE 1 23 May 10:48:35 10:50:15 12° 90° (E) 10:52:11 437.505/2401.250
ZACube-1 23 May 10:48:38 10:53:02 78° 282° (WNW) 10:57:16 437.345
TIGRISAT 23 May 10:54:26 10:59:04 55° 260° (W) 11:03:41 435.000
UKube-1 23 May 10:59:04 11:03:22 56° 101° (E) 11:07:38 .
VELOX 1 23 May 11:00:09 11:04:02 29° 96° (E) 11:07:58 145.980
DX 1 23 May 11:01:39 11:06:02 66° 101° (ESE) 11:10:23 434.975-435.025
NANOSAT C BR1 23 May 11:01:52 11:06:07 83° 77° (ENE) 11:10:26 145.865
QB50P2 23 May 11:06:47 11:11:04 83° 257° (WSW) 11:15:23 145.880/145.840
CUBEBUG 1 23 May 11:10:49 11:13:57 19° 93° (E) 11:17:12 437.445
Oscar 11 23 May 11:11:22 11:14:51 24° 289° (WNW) 11:18:13 145.826/435.025
UNISAT 6 23 May 11:13:31 11:17:48 33° 264° (W) 11:22:00 437.425
HUMSAT D 23 May 11:16:20 11:20:32 84° 283° (WNW) 11:24:39 437.325/437.525
POPSAT HIP 1 23 May 11:20:12 11:24:26 59° 260° (W) 11:28:40 437.405
DUCHIFAT 1 23 May 11:25:38 11:29:47 51° 260° (W) 11:33:58 145.980
UWE-3 23 May 11:25:41 11:29:15 24° 290° (WNW) 11:32:38 435.000/436.395/437.385
Cosmos 2504 23 May 11:28:40 11:36:46 45° 283° (WNW) 11:44:18 435.465 / 435.565
AISAT 23 May 11:29:50 11:34:19 68° 101° (E) 11:38:47 437.250
PCSat 23 May 11:30:26 11:35:50 73° 246° (WSW) 11:41:13 145.827
JUGNU 23 May 11:30:49 11:31:40 10° 167° (SSE) 11:32:38 437.505
50 SAT 23 May 11:34:19 11:38:14 90° 336° (NNW) 11:42:05 437.505
DELFI C3 23 May 11:43:59 11:45:51 13° 292° (WNW) 11:47:32 145.870
SO-50 23 May 11:46:35 11:48:58 14° 42° (NE) 11:51:33 436.795
FUNcube-1 23 May 11:47:14 11:50:13 18° 291° (WNW) 11:53:01 145.935
ANTELSAT 23 May 11:59:58 12:01:29 11° 271° (W) 12:02:41 437.575/2403.000
SPROUT 23 May 12:05:20 12:08:33 21° 94° (E) 12:11:51 437.525
CUSAT 1 23 May 12:05:52 12:10:12 18° 82° (E) 12:15:21 437.405
POLYITAN 1 23 May 12:06:01 12:08:58 17° 267° (W) 12:11:48 437.675
QB50P1 23 May 12:06:19 12:09:16 17° 267° (W) 12:12:04 145.935-145.965
BUGSAT 1 23 May 12:08:05 12:11:27 23° 265° (W) 12:14:46 437.445
GONETS M04 23 May 12:08:47 12:14:11 19° 82° (E) 12:20:07
RS-15 23 May 12:18:06 12:26:45 25° 328° (NNW) 12:35:18 29.354- 29.394
ESTCUBE 1 23 May 12:23:05 12:27:30 53° 286° (WNW) 12:31:55 437.505/2401.250
VELOX 1 23 May 12:36:56 12:40:27 23° 291° (WNW) 12:43:53 145.980
UKube-1 23 May 12:37:21 12:39:04 12° 294° (WNW) 12:40:33 .
DX 1 23 May 12:40:54 12:41:47 10° 295° (WNW) 12:42:25 434.975-435.025
TISAT 1 23 May 12:43:52 12:47:54 41° 98° (E) 12:51:57 437.305
CUBEBUG 1 23 May 12:46:23 12:50:24 33° 288° (WNW) 12:54:21 437.445
DANDE 23 May 12:48:13 12:53:42 30° 86° (E) 13:00:26 436.750
Oscar 19 23 May 13:01:40 13:06:40 52° 73° (ENE) 13:11:44 437.125/150
ITAMSAT 1 23 May 13:08:54 13:12:06 17° 66° (ENE) 13:15:31 435.822/435.867
AISAT 23 May 13:09:25 13:10:24 10° 295° (WNW) 13:11:06 437.250
JUGNU 23 May 13:16:39 13:19:55 15° 177° (S) 13:23:12 437.505
ITUPSAT 1 23 May 13:18:40 13:21:12 15° 91° (E) 13:24:00 437.325
Gurwin Techsat 1B 23 May 13:22:34 13:26:30 22° 68° (ENE) 13:30:36 435.225
SO-50 23 May 13:25:16 13:30:15 85° 241° (WSW) 13:35:07 436.795
BEESAT 23 May 13:28:19 13:31:39 19° 93° (E) 13:35:10 436.000
SWISSCUBE 23 May 13:35:43 13:39:38 26° 95° (E) 13:43:38 437.505
SPROUT 23 May 13:40:53 13:44:41 29° 288° (WNW) 13:48:23 437.525
CUSAT 1 23 May 13:45:07 13:51:50 77° 280° (W) 13:59:59 437.405
GONETS M04 23 May 14:01:20 14:10:10 78° 278° (W) 14:19:04
Cosmos 2499 23 May 14:17:57 14:23:59 24° 86° (E) 14:30:02 435.465 / 435.565
TISAT 1 23 May 14:20:51 14:23:23 15° 292° (WNW) 14:25:43 437.305
JAS-2 23 May 14:22:51 14:27:13 19° 67° (ENE) 14:31:33 435.910
AO-7 23 May 14:23:05 14:29:15 25° 59° (ENE) 14:35:43 29.400- 29.500
HORYU 2 23 May 14:25:04 14:27:01 13° 66° (ENE) 14:29:10 437.375
SRMSAT 23 May 14:26:25 14:29:28 14° 174° (S) 14:32:33 437.500
DANDE 23 May 14:30:16 14:36:34 47° 287° (WNW) 14:44:16 436.750
KKS-1 23 May 14:36:16 14:39:06 17° 92° (E) 14:42:05 437.445
RS-15 23 May 14:40:05 14:45:06 14° 3° (N) 14:50:18 29.354- 29.394
Oscar 19 23 May 14:43:05 14:46:24 16° 269° (W) 14:49:29 437.125/150
ITAMSAT 1 23 May 14:46:13 14:51:14 52° 260° (W) 14:56:17 435.822/435.867
ITUPSAT 1 23 May 14:54:49 14:59:26 49° 287° (WNW) 15:04:02 437.325
Gurwin Techsat 1B 23 May 15:01:15 15:06:15 41° 262° (W) 15:11:14 435.225
JUGNU 23 May 15:05:13 15:08:10 14° 187° (S) 15:11:04 437.505
BEESAT 23 May 15:05:15 15:09:40 37° 288° (WNW) 15:14:01 436.000
SWISSCUBE 23 May 15:13:21 15:17:29 29° 290° (WNW) 15:21:31 437.505
CUSAT 1 23 May 15:32:24 15:36:19 14° 303° (WNW) 15:39:55 437.405
STARS 23 May 15:48:51 15:53:18 71° 102° (ESE) 15:57:42 437.465
HORYU 2 23 May 15:58:50 16:03:14 54° 260° (W) 16:07:39 437.375
